TimeAKST,TemperatureF,Dew PointF,Humidity,Sea Level PressureIn,VisibilityMPH,Wind Direction,Wind SpeedMPH,Gust SpeedMPH,PrecipitationIn,Events,Conditions,WindDirDegrees,DateUTC
12:53 AM,35.1,33.1,92,29.32,9.0,ENE,5.8,-,0.06,Rain-Snow,Light Rain,60,2013-02-28 09:53:00
1:11 AM,35.6,33.8,93,29.32,10.0,Variable,3.5,-,0.00,Rain,Light Rain,0,2013-02-28 10:11:00
1:36 AM,37.4,33.8,87,29.32,10.0,East,9.2,-,0.01,Rain,Light Rain,90,2013-02-28 10:36:00
1:53 AM,37.0,33.1,86,29.33,5.0,East,12.7,20.7,0.02,Rain,Light Rain,80,2013-02-28 10:53:00
3:05 AM,35.6,33.8,93,29.39,2.5,SE,15.0,21.9,0.01,Rain,Light Rain,130,2013-02-28 12:05:00
3:25 AM,35.6,33.8,93,29.41,3.0,ESE,15.0,24.2,0.01,Rain,Light Rain,120,2013-02-28 12:25:00
3:32 AM,35.6,33.8,93,29.41,2.5,SE,12.7,24.2,0.01,Rain,Light Rain,130,2013-02-28 12:32:00
3:41 AM,35.6,33.8,93,29.42,7.0,ESE,11.5,19.6,0.01,Rain,Light Rain,120,2013-02-28 12:41:00
3:53 AM,35.1,33.1,92,29.42,4.0,ESE,9.2,-,0.01,Rain,Light Rain,110,2013-02-28 12:53:00
4:41 AM,35.6,32.0,87,29.44,9.0,SE,10.4,-,0.01,Rain,Light Rain,130,2013-02-28 13:41:00
4:53 AM,35.1,33.1,92,29.44,9.0,ESE,8.1,-,0.01,Rain,Light Rain,110,2013-02-28 13:53:00
5:07 AM,35.6,32.0,87,29.44,10.0,ESE,10.4,-,0.00,,Overcast,120,2013-02-28 14:07:00
5:27 AM,35.6,33.8,93,29.44,10.0,East,6.9,-,0.00,,Mostly Cloudy,100,2013-02-28 14:27:00
5:53 AM,35.1,32.0,89,29.44,10.0,East,5.8,-,0.00,,Overcast,100,2013-02-28 14:53:00
6:53 AM,35.1,32.0,89,29.43,9.0,East,3.5,-,0.00,Rain,Light Rain,90,2013-02-28 15:53:00
7:01 AM,35.6,32.0,87,29.43,10.0,Calm,Calm,-,0.00,Rain,Light Rain,0,2013-02-28 16:01:00
7:53 AM,33.1,30.9,92,29.41,10.0,Calm,Calm,-,0.00,,Overcast,0,2013-02-28 16:53:00
8:53 AM,37.0,30.0,76,29.37,10.0,ENE,6.9,-,N/A,,Overcast,60,2013-02-28 17:53:00
9:53 AM,36.0,32.0,86,29.34,10.0,WNW,3.5,-,N/A,,Overcast,290,2013-02-28 18:53:00
10:53 AM,37.0,33.1,86,29.29,10.0,WSW,4.6,-,N/A,,Overcast,250,2013-02-28 19:53:00
11:53 AM,37.9,32.0,79,29.25,10.0,NW,4.6,-,N/A,,Overcast,310,2013-02-28 20:53:00
12:53 PM,39.0,30.9,73,29.23,10.0,West,3.5,-,N/A,,Overcast,270,2013-02-28 21:53:00
1:53 PM,37.9,30.0,73,29.20,10.0,West,8.1,-,N/A,,Overcast,280,2013-02-28 22:53:00
2:53 PM,39.0,30.0,70,29.19,10.0,Calm,Calm,-,N/A,,Overcast,0,2013-02-28 23:53:00
3:53 PM,37.9,30.9,76,29.19,10.0,Calm,Calm,-,N/A,,Overcast,0,2013-03-01 00:53:00
4:53 PM,39.9,28.0,63,29.18,10.0,NNE,9.2,-,N/A,,Overcast,20,2013-03-01 01:53:00
5:49 PM,37.4,32.0,81,29.23,8.0,East,13.8,20.7,0.01,Rain,Light Rain,80,2013-03-01 02:49:00
5:53 PM,37.0,32.0,82,29.23,6.0,NE,12.7,20.7,0.02,Rain,Light Rain,50,2013-03-01 02:53:00
6:53 PM,35.1,30.9,85,29.22,10.0,NE,5.8,-,0.00,,Overcast,40,2013-03-01 03:53:00
7:53 PM,35.1,30.9,85,29.20,10.0,North,4.6,-,N/A,,Partly Cloudy,360,2013-03-01 04:53:00
8:53 PM,35.1,28.9,78,29.24,9.0,Calm,Calm,-,0.00,Snow,Light Snow,0,2013-03-01 05:53:00
9:53 PM,34.0,30.0,85,29.23,10.0,East,4.6,-,0.00,,Mostly Cloudy,80,2013-03-01 06:53:00
10:53 PM,35.1,30.0,82,29.25,10.0,Calm,Calm,-,N/A,,Overcast,0,2013-03-01 07:53:00
11:40 PM,33.8,28.4,81,29.28,3.0,ENE,9.2,21.9,0.00,Snow,Light Snow,60,2013-03-01 08:40:00
11:53 PM,34.0,28.0,79,29.29,8.0,ENE,11.5,-,0.00,Snow,Light Snow,70,2013-03-01 08:53:00